Weather History for Cincinnati, OH

Change the Weather History Date:

Thursday, June 5, 2014

  Actual Average Record
Temperature  
Mean Temperature 68 °F -  
Max Temperature 78 °F 80 °F 92 °F (1958)
Min Temperature 57 °F 59 °F 45 °F (2003)
Cooling Degree Days 2    
Growing Degree Days 18 (Base 50)    
Moisture  
Dew Point 56 °F    
Average Humidity 71    
Maximum Humidity 93    
Minimum Humidity 41    
Precipitation  
Precipitation 0.00 in - - ()
Sea Level Pressure  
Sea Level Pressure 29.90 in    
Wind  
Wind Speed 9 mph (NNE)    
Max Wind Speed 16 mph    
Max Gust Speed -    
Visibility 10 miles    
Events      
Averages and records for this station are not official NWS values.
T = Trace of Precipitation, MM = Missing Value Source: NWS Daily Summary

Daily Weather History Graph

Daily Weather History Graph

Search for Another Location

Airport:

Trip Planner

Search our weather history database for the weather conditions in past years. The results will help you decide how hot, cold, wet, or windy it might be!

Date:

Astronomy

Jun. 05, 2014 Rise Set
Actual Time 6:12 AM EDT 9:00 PM EDT
Civil Twilight 5:40 AM EDT 9:32 PM EDT
Nautical Twilight 5:00 AM EDT 10:12 PM EDT
Astronomical Twilight 4:15 AM EDT 10:57 PM EDT
Moon 1:25 PM EDT (6/5) 1:30 AM EDT (6/5)
Length of Visible Light 15h 51m
Length of Day
14h 48m
Waxing Crescent, 48% of the Moon is Illuminated
Jun 5
Waxing Crescent
Jun 5
First Quarter
Jun 13
Full
Jun 19
Last Quarter
Jun 27
New

Hourly Weather History & Observations

Time (EDT) Temp. Dew Point Humidity Pressure Visibility Wind Dir Wind Speed Gust Speed Precip Events Conditions
12:53 AM 64.0 °F 59.0 °F 84% 29.82 in 10.0 mi North 16.1 mph - N/A   Overcast
1:50 AM 62.6 °F 57.2 °F 82% 29.83 in 10.0 mi North 12.7 mph - N/A   Overcast
1:53 AM 63.0 °F 57.0 °F 81% 29.82 in 10.0 mi North 11.5 mph - N/A   Overcast
2:10 AM 63.0 °F 57.0 °F 81% 29.83 in 10.0 mi North 10.4 mph - N/A   Overcast
2:53 AM 63.0 °F 57.0 °F 81% 29.84 in 10.0 mi North 9.2 mph - N/A   Overcast
3:53 AM 62.1 °F 55.9 °F 80% 29.84 in 10.0 mi North 8.1 mph - N/A   Mostly Cloudy
4:15 AM 61.0 °F 55.0 °F 81% 29.86 in 10.0 mi NNE 8.1 mph - N/A   Scattered Clouds
4:53 AM 60.1 °F 55.0 °F 83% 29.85 in 10.0 mi NNE 4.6 mph - N/A   Mostly Cloudy
5:53 AM 57.9 °F 54.0 °F 87% 29.88 in 10.0 mi Calm Calm - N/A   Clear
6:53 AM 57.9 °F 55.9 °F 93% 29.91 in 10.0 mi Calm Calm - N/A   Clear
7:53 AM 62.1 °F 55.9 °F 80% 29.92 in 10.0 mi NNE 8.1 mph - N/A   Clear
8:53 AM 64.0 °F 55.9 °F 75% 29.92 in 10.0 mi NE 8.1 mph - N/A   Clear
9:21 AM 64.4 °F 55.4 °F 73% 29.93 in 10.0 mi NE 10.4 mph - N/A   Mostly Cloudy
9:31 AM 64.0 °F 55.9 °F 75% 29.93 in 10.0 mi NE 9.2 mph - N/A   Scattered Clouds
9:53 AM 66.0 °F 57.0 °F 73% 29.93 in 10.0 mi East 10.4 mph - N/A   Scattered Clouds
10:53 AM 68.0 °F 55.9 °F 65% 29.92 in 10.0 mi NE 5.8 mph - N/A   Partly Cloudy
11:53 AM 70.0 °F 55.0 °F 59% 29.95 in 10.0 mi Calm Calm - N/A   Partly Cloudy
12:53 PM 72.0 °F 55.0 °F 55% 29.93 in 10.0 mi Variable 4.6 mph - N/A   Partly Cloudy
1:53 PM 73.9 °F 55.0 °F 52% 29.93 in 10.0 mi Variable 5.8 mph - N/A   Clear
2:53 PM 75.0 °F 50.0 °F 41% 29.92 in 10.0 mi North - - N/A   Clear
3:53 PM 78.1 °F 55.0 °F 45% 29.89 in 10.0 mi Variable 4.6 mph - N/A   Scattered Clouds
4:53 PM 77.0 °F 53.1 °F 43% 29.90 in 10.0 mi East 4.6 mph - N/A   Scattered Clouds
5:53 PM 77.0 °F 52.0 °F 42% 29.88 in 10.0 mi NNE 5.8 mph - N/A   Clear
6:53 PM 77.0 °F 54.0 °F 45% 29.90 in 10.0 mi NE 5.8 mph - N/A   Clear
7:53 PM 73.0 °F 55.9 °F 55% 29.90 in 10.0 mi NE 5.8 mph - N/A   Clear
8:53 PM 68.0 °F 57.0 °F 68% 29.91 in 10.0 mi NNE 4.6 mph - N/A   Clear
9:53 PM 61.0 °F 57.0 °F 87% 29.92 in 10.0 mi Calm Calm - N/A   Clear
10:53 PM 60.1 °F 57.0 °F 90% 29.95 in 10.0 mi Calm Calm - N/A   Clear
11:53 PM 57.9 °F 55.0 °F 90% 29.96 in 10.0 mi Calm Calm - N/A   Clear